This is the latest recevied weather packets stored in our database for station/object KY0TEQ-13. If no packets are shown the sender has not sent any weather packets the latest 10 day(s).
| Time | Temp. | Humidity | Pressure | Rain* | Wind** | Luminosity | Snow |
|---|---|---|---|---|---|---|---|
| 1788474659 | 26.11° C | 24% | 1306.5 hPa | 0 mm | - | 443 W/m² | - |
| 1788474355 | 26.11° C | 24% | 1306.5 hPa | 0 mm | - | 446 W/m² | - |
| 1788474053 | 26.11° C | 24% | 1306.7 hPa | 0 mm | - | 460 W/m² | - |
| 1788473749 | 25.56° C | 24% | 1306.6 hPa | 0 mm | - | 460 W/m² | - |
| 1788473447 | 26.11° C | 25% | 1306.8 hPa | 0 mm | - | 484 W/m² | - |
| 1788473146 | 25.56° C | 25% | 1306.6 hPa | 0 mm | - | 488 W/m² | - |
| 1788472845 | 25° C | 26% | 1306.8 hPa | 0 mm | - | 512 W/m² | - |
| 1788472545 | 25.56° C | 26% | 1306.7 hPa | 0 mm | - | 521 W/m² | - |
| 1788472244 | 25.56° C | 26% | 1306.8 hPa | 0 mm | - | 536 W/m² | - |
| 1788471944 | 26.11° C | 26% | 1306.9 hPa | 0 mm | - | 530 W/m² | - |
| 1788471639 | 25.56° C | 25% | 1307.1 hPa | 0 mm | - | 541 W/m² | - |
| 1788471335 | 25.56° C | 25% | 1307.2 hPa | 0 mm | - | 169 W/m² | - |
| 1788471030 | 26.67° C | 24% | 1307.2 hPa | 0 mm | - | 558 W/m² | - |
| 1788470726 | 26.11° C | 23% | 1306.8 hPa | 0 mm | - | 569 W/m² | - |
| 1788470421 | 26.11° C | 25% | 1307.1 hPa | 0 mm | - | 590 W/m² | - |
| 1788470116 | 25.56° C | 25% | 1307.6 hPa | 0 mm | - | 586 W/m² | - |
| 1788469813 | 25.56° C | 26% | 1307.3 hPa | 0 mm | - | 597 W/m² | - |
| 1788469512 | 25.56° C | 25% | 1307.7 hPa | 0 mm | - | 604 W/m² | - |
| 1788469209 | 25.56° C | 26% | 1307.3 hPa | 0 mm | - | 610 W/m² | - |
| 1788468903 | 25° C | 27% | 1307.6 hPa | 0 mm | - | 619 W/m² | - |
| 1788468602 | 25.56° C | 27% | 1307.7 hPa | 0 mm | - | 630 W/m² | - |
| 1788468298 | 25° C | 27% | 1307.6 hPa | 0 mm | - | 628 W/m² | - |
| 1788467993 | 25.56° C | 26% | 1307.7 hPa | 0 mm | - | 676 W/m² | - |
| 1788467689 | 25.56° C | 27% | 1307.9 hPa | 0 mm | - | 662 W/m² | - |
| 1788467389 | 25.56° C | 25% | 1307.8 hPa | 0 mm | - | 665 W/m² | - |
* Rain latest hour (hover to see other rain measurements)
** Current wind speed in m/s (hover to see current wind gust speed)